Weather in Yevtino

Russia / Kemerovo Oblast     54°21′22″N   86°42′04″E
temp.,
°C
wind,
m/s
gust,
m/s
humid.,
%
clouds,
%
prec.,
mm/h
press.,
hPa
HPBL,
m
7 may, fri
fri701:00+15sse4774100 0.0 1005101
04:00+14sse41078100 0.0 1003172
07:00+17sw3860100 0.0 1003179
10:00+17wnw61067100 0.0 1005710
13:00+17wnw6859100 0.0 10081194
16:00+19nw7942100 0.0 10082078
19:00+16wnw6944100 0.0 10111190
22:00+11w61252100 0.0 1015330
8 may, sat
sat801:00+9wsw495869 0.0 1017167
04:00+7w39660 0.0 1018190
07:00+8w27680 0.0 1019233
10:00+13w57400 0.0 10191467
13:00+16w68355 0.0 10181905
16:00+17w71141100 0.0 10162443
19:00+15w61148100 0.0 10161013
22:00+13w71457100 0.0 1016777
9 may, sun
sun901:00+11w41071100 0.3 1016221
04:00+10wsw3877100 0.3 1016177
07:00+9nnw4782100 0.3 1017439
10:00+10nnw56571 0.0 1018946
13:00+12nnw674713 0.0 10181547
16:00+13nnw56385 0.0 10181672
19:00+12n56393 0.0 10181686
22:00+7ne410560 0.0 1020301
10 may, mon
mon1001:00+5nne410630 0.0 1020247
04:00+4nne410680 0.0 1019235
07:00+4ne23676 0.0 1019131
10:00+10ene34465 0.0 1017863
13:00+14ene56337 0.0 10151623
16:00+17ene5726100 0.0 10122224
19:00+14ne81140100 0.0 1011838
22:00+10ene7144882 0.0 1012486
11 may, tue
tue1101:00+7ne5116150 0.0 1012271
04:00+5nne38705 0.0 1012157
07:00+6nne25665 0.0 1012200
10:00+12ene334636 0.0 1012686
13:00+16ene343322 0.0 10111608
16:00+18ene3329100 0.0 10102382
19:00+17ene3536100 0.0 1011825
22:00+12ene51147100 0.0 1012311